カタログに戻る

STARLINK-4305

運用中通信SSO
NORAD 53060·PAYLOAD·🇺🇸 United States

打ち上げ Jul 11, 2022 から Vandenberg Space Force Base

Loading…

次のパス (今後24時間)

TLE

最新Source: CelesTrak SupGP

元期: Sep 14, 2026, 21:19 UTC

1 53060C 22077T   26257.88868056  .00081111  00000+0  25178-2 0  2576
2 53060  97.2854  72.8027 0001533  97.6301 209.2102 15.33399164    16

AllMySatでSTARLINK-4305をリアルタイム追跡

Download on the App Store